Notices

What’s New in latest Release from January 14th 2021:

·       In Historical Hourly Data Report, users can switch between Local Standard Time (LST) and Universal Time Coordinates (UTC) time.

·       In Historical Hourly Data Report, we have an addition of a new column to display hourly precipitation data for the stations where the data are available, from 2001 onwards.

·       Expanded the Search Options of the Canadian Historical Weather Radar, users now able to select 24 hours (1 image every hour) image viewing duration.

Please note that the IDF dataset is available through this link: Intensity-Duration-Frequency (IDF) Files .

Hourly Data Report for November 23, 2019

HOPE A
BRITISH COLUMBIA
Current Station Operator: NAVCAN

49°22'06.000" N
121°29'53.000" W
39.00 m
1113542
71187
YHE

Download Data

Hourly Data (November 2019)
Hourly Data Report for November 23, 2019
TIME
LST
Temp Definition
°C
Dew Point Definition
°C
Rel Hum Definition
%
Precip. Amount Definition
mm

Wind Dir Definition
10's deg

Wind Spd Definition
km/h
Visibility Definition
km
Stn Press Definition
kPa
Hmdx Definition


Wind Chill Definition


Weather Definition


00:00 1.7 1.3 97 0.0 LegendMM 4 8.1 102.19     Fog
01:00 2.0 1.4 96 0.0 30 5 16.1 102.16     LegendNANA
02:00 2.8 1.9 94 0.0 LegendMM 4 16.1 102.21     LegendNANA
03:00 2.6 1.9 95 0.0 LegendMM 4 16.1 102.20     LegendNANA
04:00 2.6 2.0 96 0.0 LegendMM 4 16.1 102.10     LegendNANA
05:00 2.8 2.2 96 0.0   0 12.9 102.20     Rain
06:00 3.0 2.6 97 0.0   0 12.9 102.09     LegendNANA
07:00 3.1 2.7 97 0.0 LegendMM 4 9.7 102.06     Fog
08:00 3.2 2.8 97 0.0 21 5 4.8 102.08     Rain,Fog
09:00 4.8 3.9 94 0.0 22 13 16.1 102.07     LegendNANA
10:00 5.0 4.3 95 0.0 19 8 4.8 102.02     Rain,Fog
11:00 5.6 4.8 94 0.2 LegendMM 11 9.7 101.98     Rain,Fog
12:00 6.0 5.2 95 0.2 24 17 4.0 101.85     Rain,Fog
13:00 6.4 5.5 94 0.5 26 15 4.0 101.78     Rain,Fog
14:00 6.7 5.6 93 1.0 22 11 12.9 101.67     Rain
15:00 7.3 5.6 89 0.0 26 11 12.9 101.62     Rain
16:00 7.3 5.8 90 0.5 27 22 14.5 101.53     Rain
17:00 7.2 5.8 91 0.0 25 15 16.1 101.45     Rain
18:00 7.0 6.1 94 0.5 24 15 4.8 101.40     Rain,Fog
19:00 6.8 6.2 96 2.0 26 17 4.8 101.29     Moderate Rain,Fog
20:00 7.2 6.6 96 3.2 27 17 8.1 101.18     Moderate Rain,Fog
21:00 7.0 6.4 96 2.2 23 18 4.0 101.04     Rain,Fog
22:00 7.3 6.6 95 1.8 23 26 4.8 100.86     Rain,Fog
23:00 9.2 7.5 89 1.2 28 26 4.8 100.78     Rain,Fog

Notes on Data Quality.

Legend

  • E = Estimated
  • M = Missing
  • NA = Not Available*
  • [empty] = Indicates an unobserved value
Date modified: